DW2199 Weather Reports


Display with metric or nautical units.
time (UTC)temp
F
wind
direction
speed
MPH
gust
MPH
rain 1hr
in
rain 24hr
in
rain mn
in
humidity
%
barometer
mb
20260905033100 66 188 0.0 0.0 0.00 0.00 0.00 85 1010.3
20260905031600 66 188 0.0 1.0 0.00 0.00 0.00 86 1010.3
20260905030101 66 189 0.0 0.0 0.00 0.00 0.00 86 1010.2
20260905024626 66 189 0.0 0.0 0.00 0.00 0.00 86 1010.2
20260905023044 67 189 0.0 0.0 0.00 0.00 0.00 85 1010.3
20260905021543 67 188 0.0 0.0 0.00 0.00 0.00 86 1010.3
20260905020047 67 189 0.0 0.0 0.00 0.00 0.00 85 1010.3
20260905014538 68 189 0.0 0.0 0.00 0.00 0.00 84 1010.3
20260905013034 69 188 0.0 0.0 0.00 0.00 0.00 84 1010.3
20260905011533 69 189 0.0 0.0 0.00 0.00 0.00 83 1010.4
20260905010031 69 188 0.0 0.0 0.00 0.00 0.00 83 1010.4
20260905004531 69 189 0.0 0.0 0.00 0.00 0.00 82 1010.2
20260905003013 70 188 0.0 0.0 0.00 0.00 0.00 82 1010.2
20260905001511 70 189 0.0 0.0 0.00 0.00 0.00 82 1010.0
20260905000058 70 188 0.0 0.0 0.00 0.00 0.00 81 1009.9
20260904234556 71 188 0.0 1.0 0.00 0.00 0.00 80 1009.8
20260904233101 72 188 0.0 0.0 0.00 0.00 0.00 79 1009.7
20260904231552 72 188 0.0 0.0 0.00 0.00 0.00 78 1009.6
20260904230048 73 188 0.0 1.0 0.00 0.00 0.00 76 1009.5
20260904224547 74 189 0.0 0.0 0.00 0.00 0.00 76 1009.6
20260904223045 74 188 0.0 0.0 0.00 0.00 0.00 75 1009.4
20260904221540 75 188 0.0 1.0 0.00 0.00 0.00 75 1009.3
20260904220023 76 188 0.0 1.0 0.00 0.00 0.00 72 1009.4
20260904214535 77 188 0.0 1.0 0.00 0.00 0.00 69 1009.2
20260904213057 78 188 0.0 1.0 0.00 0.00 0.00 66 1009.2
20260904211602 79 188 0.0 1.0 0.00 0.00 0.00 62 1009.2
20260904210043 80 193 0.0 1.0 0.00 0.00 0.00 57 1009.4
20260904204540 81 186 0.0 3.0 0.00 0.00 0.00 60 1009.3
20260904203038 82 186 0.0 2.0 0.00 0.00 0.00 54 1009.3
20260904201537 84 190 0.0 3.0 0.00 0.00 0.00 48 1009.3
20260904200036 83 167 0.0 5.0 0.00 0.00 0.00 47 1009.3
20260904194534 83 190 0.0 4.0 0.00 0.00 0.00 48 1009.4
20260904193043 84 200 0.0 3.0 0.00 0.00 0.00 50 1009.4
20260904191533 84 184 0.0 3.0 0.00 0.00 0.00 50 1009.4
20260904190013 85 200 0.0 2.0 0.00 0.00 0.00 46 1009.7
20260904184518 84 281 0.0 2.0 0.00 0.00 0.00 49 1009.6
20260904183053 83 1 0.0 6.0 0.00 0.00 0.00 50 1009.8
20260904181552 84 205 0.0 2.0 0.00 0.00 0.00 52 1009.7
20260904180049 85 101 0.0 3.0 0.00 0.00 0.00 49 1009.8
20260904174539 85 354 1.0 4.0 0.00 0.00 0.00 50 1009.8
20260904173039 86 8 1.0 7.0 0.00 0.00 0.00 45 1009.8
20260904171530 85 143 2.0 6.0 0.00 0.00 0.00 49 1009.9
20260904170028 80 163 0.0 4.0 0.00 0.00 0.00 56 1009.9
20260904164527 83 167 1.0 5.0 0.00 0.00 0.00 51 1009.9
20260904163026 82 161 0.0 4.0 0.00 0.00 0.00 53 1010.1
20260904161523 81 210 0.0 1.0 0.00 0.00 0.00 55 1010.2
20260904160003 81 209 0.0 3.0 0.00 0.00 0.00 55 1010.4
20260904154559 82 158 0.0 3.0 0.00 0.00 0.00 53 1010.6
20260904153050 84 210 0.0 4.0 0.00 0.00 0.00 53 1010.6
20260904151540 83 169 0.0 6.0 0.00 0.00 0.00 54 1010.7
20260904150044 82 5 1.0 5.0 0.00 0.00 0.00 60 1010.8
20260904144539 80 218 1.0 3.0 0.00 0.00 0.00 65 1010.7
20260904143037 76 211 0.0 5.0 0.00 0.00 0.00 73 1010.7
20260904141553 72 193 0.0 2.0 0.00 0.00 0.00 83 1010.8
20260904140038 70 197 0.0 1.0 0.00 0.00 0.00 85 1010.9
20260904134535 70 196 0.0 1.0 0.00 0.00 0.00 88 1010.9
20260904133035 68 195 0.0 0.0 0.00 0.00 0.00 91 1010.8
20260904131543 67 195 0.0 0.0 0.00 0.00 0.00 93 1011.0
20260904130023 66 195 0.0 0.0 0.00 0.00 0.00 96 1011.0
20260904124523 64 195 0.0 0.0 0.00 0.00 0.00 97 1011.1
20260904123021 63 196 0.0 0.0 0.00 0.00 0.00 97 1011.2
20260904121522 63 196 0.0 0.0 0.00 0.00 0.00 97 1011.3
20260904120020 61 195 0.0 0.0 0.00 0.00 0.00 97 1011.3
20260904114535 59 195 0.0 0.0 0.00 0.00 0.00 97 1011.3
20260904113019 58 195 0.0 0.0 0.00 0.00 0.00 96 1011.0
20260904111518 58 196 0.0 0.0 0.00 0.00 0.00 96 1010.9
20260904110017 58 196 0.0 0.0 0.00 0.00 0.00 96 1010.7
20260904104504 58 195 0.0 0.0 0.00 0.00 0.00 96 1010.6
20260904103004 58 195 0.0 0.0 0.00 0.00 0.00 96 1010.5
20260904101514 58 195 0.0 0.0 0.00 0.00 0.00 96 1010.4
20260904100002 58 195 0.0 0.0 0.00 0.00 0.00 96 1010.3
20260904094501 58 195 0.0 0.0 0.00 0.00 0.00 96 1010.3
20260904093001 58 195 0.0 0.0 0.00 0.00 0.00 96 1010.1
20260904091600 58 195 0.0 0.0 0.00 0.00 0.00 96 1010.0
20260904090042 58 195 0.0 0.0 0.00 0.00 0.00 96 1010.1
20260904084541 58 195 0.0 0.0 0.00 0.00 0.00 95 1010.0
20260904083028 59 195 0.0 0.0 0.00 0.00 0.00 95 1010.0
20260904081527 59 196 0.0 0.0 0.00 0.00 0.00 95 1009.9
20260904080025 59 196 0.0 0.0 0.00 0.00 0.00 95 1009.9
20260904074527 59 196 0.0 0.0 0.00 0.00 0.00 95 1009.9
20260904073023 60 196 0.0 0.0 0.00 0.00 0.00 95 1009.9
20260904071531 60 195 0.0 0.0 0.00 0.00 0.00 95 1009.8
20260904070021 60 195 0.0 0.0 0.00 0.00 0.00 95 1009.8
20260904064521 60 196 0.0 0.0 0.00 0.00 0.00 95 1009.8
20260904063031 60 196 0.0 0.0 0.00 0.00 0.00 95 1009.9
20260904061502 60 195 0.0 0.0 0.00 0.00 0.00 95 1010.0
20260904060002 60 195 0.0 0.0 0.00 0.00 0.00 95 1010.2
20260904054540 61 195 0.0 0.0 0.00 0.00 0.00 95 1010.3
20260904053040 61 196 0.0 0.0 0.00 0.00 0.00 94 1010.3
20260904051519 61 195 0.0 0.0 0.00 0.00 0.00 94 1010.3
20260904050018 61 196 0.0 0.0 0.00 0.00 0.00 94 1010.5
20260904044604 62 196 0.0 0.0 0.00 0.00 0.00 94 1010.5
20260904043058 62 196 0.0 0.0 0.00 0.00 0.00 94 1010.7
20260904041548 62 195 0.0 0.0 0.00 0.00 0.00 94 1010.7
20260904040046 62 196 0.0 0.0 0.00 0.00 0.00 94 1010.6
20260904034558 63 195 0.0 0.0 0.00 0.00 0.00 93 1010.6